Elmira, NY

7:26 PM EST on December 09, 2019 (GMT -0500)
Elmira-Corning Regional

Weather History for KELM - October, 2019

Change the Weather History Date:

Tuesday, October 22, 2019

  Actual Average Record
Temperature  
Mean Temperature 52 °F -  
Max Temperature 60 °F 59 °F 88 °F (1947)
Min Temperature 43 °F 34 °F 20 °F (1974)
Degree Days  
Heating Degree Days 14    
Growing Degree Days 2 (Base 50)    
Moisture  
Dew Point 52 °F    
Average Humidity 86    
Maximum Humidity 100    
Minimum Humidity 62    
Precipitation  
Precipitation 0.52 in - - ()
Sea Level Pressure  
Sea Level Pressure 29.85 in    
Wind  
Wind Speed 6 mph (SSW)    
Max Wind Speed 14 mph    
Max Gust Speed 23 mph    
Visibility 6 miles    
Events Fog , Rain    
Averages and records for this station are not official NWS values.
T = Trace of Precipitation, MM = Missing Value Source: NWS Daily Summary

Daily Weather History Graph

Daily Weather History Graph

Search for Another Location

Airport or City:

Astronomy

Oct. 22, 2019 Rise Set
Actual Time 7:28 AM EDT 6:15 PM EDT
Civil Twilight 6:59 AM EDT 6:43 PM EDT
Nautical Twilight 6:26 AM EDT 7:16 PM EDT
Astronomical Twilight 5:54 AM EDT 7:48 PM EDT
Moon 12:26 AM EDT (10/22) 3:31 PM EDT (10/22)
Length of Visible Light 11h 44m
Length of Day
10h 47m
Last Quarter, 37% of the Moon is Illuminated
Oct 22
Last Quarter
Oct 27
New
Nov 4
First Quarter
Nov 12
Full
Nov 19
Last Quarter

Hourly Weather History & Observations

Time (EDT) Temp. Windchill Dew Point Humidity Pressure Visibility Wind Dir Wind Speed Gust Speed Precip Events Conditions
12:53 AM 59.0 °F - 48.0 °F 67% 29.96 in 10.0 mi Variable 4.6 mph - N/A   Clear
1:53 AM 60.1 °F - 46.9 °F 62% 29.98 in 10.0 mi South 12.7 mph - N/A   Clear
2:53 AM 59.0 °F - 48.9 °F 69% 29.97 in 10.0 mi South 13.8 mph 21.9 mph N/A   Mostly Cloudy
3:18 AM 59.0 °F - 50.0 °F 72% 29.95 in 10.0 mi North - - N/A   Mostly Cloudy
3:53 AM 59.0 °F - 51.1 °F 75% 29.91 in 10.0 mi SSE 8.1 mph - N/A   Overcast
4:53 AM 60.1 °F - 51.1 °F 72% 29.94 in 10.0 mi Variable 4.6 mph - N/A   Overcast
5:53 AM 59.0 °F - 52.0 °F 78% 29.92 in 10.0 mi Variable 3.5 mph - N/A   Overcast
6:53 AM 59.0 °F - 52.0 °F 78% 29.91 in 10.0 mi SSW 12.7 mph 18.4 mph N/A   Overcast
7:53 AM 59.0 °F - 52.0 °F 78% 29.91 in 10.0 mi North - - N/A   Overcast
8:53 AM 57.9 °F - 53.1 °F 84% 29.91 in 10.0 mi South 11.5 mph 20.7 mph N/A   Overcast
9:53 AM 59.0 °F - 53.1 °F 81% 29.88 in 10.0 mi North - - N/A   Overcast
10:53 AM 59.0 °F - 53.1 °F 81% 29.86 in 10.0 mi South 10.4 mph 17.3 mph N/A   Overcast
11:53 AM 59.0 °F - 52.0 °F 78% 29.83 in 10.0 mi South 12.7 mph 23.0 mph N/A   Overcast
12:53 PM 57.9 °F - 53.1 °F 84% 29.81 in 10.0 mi SSE 9.2 mph - N/A   Overcast
1:53 PM 59.0 °F - 54.0 °F 83% 29.77 in 10.0 mi Variable 4.6 mph - N/A   Overcast
2:17 PM 60.1 °F - 54.0 °F 80% 29.77 in 10.0 mi Variable 5.8 mph 17.3 mph 0.00 in Rain Light Rain
2:27 PM 59.0 °F - 54.0 °F 83% 29.77 in 1.0 mi SW 4.6 mph - 0.05 in Rain Heavy Rain
2:53 PM 57.9 °F - 55.9 °F 93% 29.79 in 1.0 mi WSW 4.6 mph - 0.16 in Rain Rain
3:00 PM 57.9 °F - 55.9 °F 93% 29.79 in 2.5 mi West 4.6 mph - 0.02 in Rain Rain
3:17 PM 57.9 °F - 57.0 °F 97% 29.79 in 3.0 mi Calm Calm - 0.06 in Rain Rain
3:53 PM 57.9 °F - 55.9 °F 93% 29.80 in 3.0 mi Calm Calm - 0.16 in Rain Rain
4:53 PM 57.9 °F - 55.9 °F 93% 29.81 in 4.0 mi NNW 5.8 mph - 0.12 in Rain Rain
5:53 PM 59.0 °F - 53.1 °F 81% 29.79 in 10.0 mi Calm Calm - 0.04 in Rain Light Rain
6:53 PM 57.0 °F - 55.0 °F 93% 29.78 in 10.0 mi Calm Calm - 0.02 in Rain Light Rain
7:53 PM 55.9 °F - 54.0 °F 93% 29.80 in 10.0 mi Calm Calm - 0.02 in   Overcast
8:32 PM 54.0 °F - 53.1 °F 97% 29.80 in 4.0 mi Calm Calm - N/A   Partly Cloudy
8:45 PM 52.0 °F - 52.0 °F 100% 29.80 in 1.5 mi Calm Calm - N/A   Partly Cloudy
8:47 PM 51.8 °F - 51.8 °F 100% 29.80 in 0.8 mi Calm Calm - N/A   Mist
8:53 PM 50.0 °F - 50.0 °F 100% 29.81 in 0.2 mi Calm Calm - N/A Fog Fog
9:53 PM 50.0 °F - 50.0 °F 100% 29.82 in 0.2 mi WSW 3.5 mph - N/A Fog Fog
10:28 PM 48.0 °F - 48.0 °F 100% 29.82 in 0.5 mi SSW 3.5 mph - N/A Fog Fog
10:37 PM 48.0 °F - 46.9 °F 96% 29.82 in 0.2 mi WSW 3.5 mph - N/A Fog Fog
10:53 PM 43.0 °F - 43.0 °F 100% 29.83 in 0.2 mi Calm Calm - N/A Fog Fog
11:53 PM 44.1 °F 42.5 °F 44.1 °F 100% 29.83 in 0.2 mi NNE 3.5 mph - N/A Fog Fog